Moab, UT

5:15 AM MST on November 23, 2017 (GMT -0700)
Canyonlands

Weather History for KCNY - April, 2013

Change the Weather History Date:

Tuesday, April 2, 2013

  Actual Average Record
Temperature  
Mean Temperature 49 °F 49 °F  
Max Temperature 58 °F 63 °F 83 °F (1959)
Min Temperature 40 °F 34 °F 19 °F (1975)
Degree Days  
Heating Degree Days 16 16  
Month to date heating degree days 23 32  
Since 1 July heating degree days 5531 5080  
Cooling Degree Days 0 0  
Month to date cooling degree days 0 0  
Year to date cooling degree days 0 0  
Moisture  
Dew Point 31 °F    
Average Humidity 50    
Maximum Humidity 62    
Minimum Humidity 38    
Precipitation  
Precipitation T in 0.02 in 1.30 in (1974)
Month to date precipitation T 0.04  
Year to date precipitation 0.69 1.97  
Sea Level Pressure  
Sea Level Pressure 29.88 in    
Wind  
Wind Speed 5 mph (NW)    
Max Wind Speed 17 mph    
Max Gust Speed 23 mph    
Visibility 10 miles    
Events Rain    
T = Trace of Precipitation, MM = Missing Value Source: NWS Daily Summary

Daily Weather History Graph

Daily Weather History Graph

Search for Another Location

Airport or City:

Trip Planner

Search our weather history database for the weather conditions in past years. The results will help you decide how hot, cold, wet, or windy it might be!

Date:

Astronomy

Apr. 02, 2013 Rise Set
Actual Time 7:01 AM MDT 7:43 PM MDT
Civil Twilight 6:34 AM MDT 8:10 PM MDT
Nautical Twilight 6:03 AM MDT 8:42 PM MDT
Astronomical Twilight 5:30 AM MDT 9:15 PM MDT
Moon 1:48 AM MDT (4/2) 11:58 AM MDT (4/2)
Length of Visible Light 13h 35m
Length of Day
12h 42m
Waning Gibbous, 55% of the Moon is Illuminated
Apr 2
Waning Gibbous
Apr 2
Last Quarter
Apr 10
New
Apr 18
First Quarter
Apr 25
Full

Hourly Weather History & Observations

Time (MDT) Temp. Windchill Dew Point Humidity Pressure Visibility Wind Dir Wind Speed Gust Speed Precip Events Conditions
12:53 AM 46.0 °F 44.8 °F 28.9 °F 51% 29.80 in 10.0 mi NNW 3.5 mph - N/A   Partly Cloudy
1:53 AM 46.0 °F 41.9 °F 30.0 °F 54% 29.81 in 10.0 mi NNW 8.1 mph - N/A   Mostly Cloudy
2:53 AM 46.9 °F - 30.9 °F 54% 29.80 in 10.0 mi North 6.9 mph - N/A   Overcast
3:53 AM 46.9 °F - 33.1 °F 59% 29.79 in 10.0 mi Calm Calm - 0.00 in Rain Light Rain
4:53 AM 45.0 °F - 35.1 °F 68% 29.80 in 10.0 mi Calm Calm - 0.00 in   Mostly Cloudy
5:53 AM 44.1 °F - 30.9 °F 60% 29.81 in 10.0 mi Calm Calm - N/A   Clear
6:53 AM 43.0 °F 39.5 °F 28.9 °F 58% 29.83 in 10.0 mi WSW 5.8 mph - N/A   Clear
7:53 AM 44.1 °F - 28.9 °F 55% 29.86 in 10.0 mi Calm Calm - N/A   Overcast
8:53 AM 48.9 °F - 30.0 °F 48% 29.87 in 10.0 mi NNE 5.8 mph - N/A   Overcast
9:53 AM 52.0 °F - 30.0 °F 43% 29.87 in 10.0 mi NNW 6.9 mph - N/A   Mostly Cloudy
10:53 AM 52.0 °F - 32.0 °F 47% 29.88 in 10.0 mi NW 8.1 mph - N/A   Partly Cloudy
11:53 AM 54.0 °F - 30.9 °F 41% 29.89 in 10.0 mi WNW 11.5 mph - N/A   Clear
12:53 PM 55.9 °F - 32.0 °F 40% 29.87 in 10.0 mi NW 15.0 mph 20.7 mph N/A   Scattered Clouds
1:53 PM 54.0 °F - 32.0 °F 43% 29.88 in 10.0 mi NNW 12.7 mph - N/A   Mostly Cloudy
2:53 PM 55.0 °F - 32.0 °F 42% 29.87 in 10.0 mi Variable 4.6 mph - N/A   Partly Cloudy
3:53 PM 55.9 °F - 30.9 °F 39% 29.87 in 10.0 mi NW 5.8 mph - N/A   Clear
4:53 PM 53.6 °F - 33.8 °F 47% 29.95 in 10.0 mi SE 15.0 mph - N/A   Mostly Cloudy
5:53 PM 52.0 °F - 34.0 °F 50% 29.91 in 10.0 mi Calm Calm - N/A   Partly Cloudy
6:53 PM 52.0 °F - 34.0 °F 50% 29.93 in 10.0 mi Calm Calm - N/A   Clear
7:53 PM 51.1 °F - 33.1 °F 50% 29.94 in 10.0 mi Calm Calm - N/A   Clear
8:53 PM 48.9 °F - 32.0 °F 52% 29.96 in 10.0 mi Calm Calm - N/A   Partly Cloudy
9:53 PM 46.4 °F 44.3 °F 30.2 °F 53% 30.02 in 10.0 mi WSW 4.6 mph - N/A   Mostly Cloudy
10:53 PM 45.0 °F 40.6 °F 30.9 °F 58% 29.99 in 10.0 mi NW 8.1 mph - N/A   Mostly Cloudy
11:53 PM 43.0 °F 39.5 °F 30.9 °F 62% 29.99 in 10.0 mi NW 5.8 mph - N/A   Partly Cloudy